sat.trackr.live / text

‹ back to catalog

UNKNOWN

NORAD 87051

UNKNOWN UNKNOWN UNKNOWN

§ Identity

Operator
Country
Launch date
Launch site
Launch vehicle
Mass (kg)
RCS (m²)

External: N2YO · Heavens-Above

§ Orbital elements

Epoch: 2026-09-17T10:26:27.584736Z

Period
106.91 min
Inclination
65.7277°
Eccentricity
0.0713591
Mean motion
13.46894501 rev/d
Perigee alt
551.2 km
Apogee alt
1,616.2 km
Semi-major
7,461.8 km
B*
3.0278e-4
RAAN
309.3843°
Arg perigee
13.5498°
Mean anomaly
348.3641°
Rev number
62,610

§ Raw data

UNKNOWN1 87051U          26260.43504149  .00000817  00000+0  30278-3 0  99952 87051  65.7277 309.3843 0713591  13.5498 348.3641 13.46894501626108

JSON: /api/v1/satellites/87051 · /tle

For live sub-satellite position, see the globe view (requires WebGL).

§ Visibility from observer

Set your observer location to see the next 7 days of passes ≥ 10°. The values pass through the URL so the page stays shareable.

No JS? Fill the form by hand. The geolocation button needs JavaScript.